| time (UTC) | temp C | wind direction | speed KPH | gust KPH | rain 1hr cm | rain 24hr cm | rain mn cm | humidity % | barometer mb |
| 20260501224503 | 15 | 0 | 0.0 | 0.0 | 0.00 | 0.00 | 0.00 | 55 | 1020.3 |
| 20260501223604 | 15 | 0 | 0.0 | 0.0 | 0.00 | 0.00 | 0.00 | 54 | 1020.5 |
| 20260501222703 | 16 | 0 | 0.0 | 0.0 | 0.00 | 0.00 | 0.00 | 52 | 1020.4 |
| 20260501221803 | 16 | 237 | 0.0 | 1.6 | 0.00 | 0.00 | 0.00 | 51 | 1020.7 |
| 20260501220903 | 16 | 237 | 0.0 | 1.6 | 0.00 | 0.00 | 0.00 | 49 | 1020.6 |
| 20260501220003 | 16 | 0 | 0.0 | 0.0 | 0.00 | 0.00 | 0.00 | 52 | 1020.7 |
| 20260501215403 | 16 | 0 | 0.0 | 0.0 | 0.00 | 0.00 | 0.00 | 51 | 1020.8 |
| 20260501214503 | 16 | 0 | 0.0 | 0.0 | 0.00 | 0.00 | 0.00 | 51 | 1020.9 |
| 20260501213603 | 17 | 237 | 0.0 | 1.6 | 0.00 | 0.00 | 0.00 | 48 | 1021.0 |
| 20260501212703 | 17 | 237 | 0.0 | 1.6 | 0.00 | 0.00 | 0.00 | 46 | 1020.9 |
| 20260501211803 | 17 | 237 | 0.0 | 1.6 | 0.00 | 0.00 | 0.00 | 47 | 1020.8 |
| 20260501210903 | 18 | 237 | 0.0 | 1.6 | 0.00 | 0.00 | 0.00 | 47 | 1020.8 |
| 20260501210003 | 18 | 237 | 0.0 | 1.6 | 0.00 | 0.00 | 0.00 | 45 | 1020.7 |
| 20260501205403 | 18 | 237 | 0.0 | 1.6 | 0.00 | 0.00 | 0.00 | 45 | 1020.8 |
| 20260501204503 | 18 | 237 | 0.0 | 1.6 | 0.00 | 0.00 | 0.00 | 45 | 1020.6 |
| 20260501203603 | 18 | 237 | 0.0 | 1.6 | 0.00 | 0.00 | 0.00 | 44 | 1020.8 |
| 20260501202703 | 18 | 237 | 0.0 | 1.6 | 0.00 | 0.00 | 0.00 | 45 | 1020.8 |
| 20260501201803 | 19 | 237 | 0.0 | 1.6 | 0.00 | 0.00 | 0.00 | 44 | 1020.8 |
| 20260501200903 | 19 | 237 | 0.0 | 1.6 | 0.00 | 0.00 | 0.00 | 42 | 1020.7 |
| 20260501200024 | 20 | 237 | 0.0 | 1.6 | 0.00 | 0.00 | 0.00 | 43 | 1020.8 |
| 20260501195403 | 20 | 0 | 0.0 | 0.0 | 0.00 | 0.00 | 0.00 | 42 | 1020.7 |
| 20260501194524 | 20 | 238 | 0.0 | 1.6 | 0.00 | 0.00 | 0.00 | 43 | 1020.7 |